Location: Unspecified
(0.0000°N, 0.0000°E)
Time: 19:28:09
(UTC+00:00)

Courier 1B - Visible Passes

Search period start: 18 December 2014 00:00
Search period end: 28 December 2014 00:00
Orbit: 963 x 1209 km, 28.3° (Epoch: 17 December)

Date Brightness Start Highest point End Pass type
(mag) Time Alt. Az. Time Alt. Az. Time Alt. Az.
18 Dec 10.1 04:43:46 10° S 04:46:50 13° SSE 04:49:50 10° SE visible
18 Dec 8.3 20:00:54 10° WNW 20:08:37 62° SSW 20:12:44 30° SE visible
18 Dec 10.2 21:57:55 10° WSW 21:59:45 15° WSW 21:59:45 15° WSW visible
19 Dec 8.0 19:06:52 10° WNW 19:14:38 83° SSW 19:22:32 10° ESE visible
19 Dec 9.5 21:02:52 10° W 21:09:17 27° SSW 21:11:01 25° S visible
20 Dec 9.7 04:48:32 10° SSW 04:53:51 24° SSE 04:58:58 10° ESE visible
20 Dec 8.0 18:13:03 10° NW 18:20:39 74° NNE 18:28:31 10° ESE visible
20 Dec 9.2 20:08:10 10° W 20:15:12 36° SSW 20:22:15 10° SE visible
20 Dec 10.4 22:07:31 10° SW 22:09:16 12° SSW 22:09:16 12° SSW visible
21 Dec 9.9 03:55:22 10° SSW 03:59:53 18° SSE 04:04:14 10° ESE visible
21 Dec 8.8 19:13:47 10° WNW 19:21:10 49° SSW 19:28:42 10° SE visible
21 Dec 10.1 21:11:34 10° WSW 21:16:13 17° SSW 21:20:19 11° S visible
22 Dec 10.2 03:02:26 10° S 03:05:47 14° SSE 03:09:02 10° SE visible
22 Dec 8.7 04:54:08 10° SW 05:00:38 43° SSE 05:06:49 10° E visible
22 Dec 8.4 18:19:40 10° WNW 18:27:10 66° SSW 18:34:58 10° SE visible
22 Dec 9.9 20:16:16 10° WSW 20:22:00 22° SSW 20:27:46 10° SSE visible
23 Dec 10.3 02:10:52 10° SSE 02:11:34 10° SSE 02:12:48 10° SSE visible
23 Dec 9.2 04:00:38 10° SSW 04:06:47 32° SSE 04:12:38 10° E visible
23 Dec 9.7 19:21:25 10° W 19:27:51 29° SSW 19:34:26 10° SSE visible
23 Dec 10.5 21:23:08 10° SSW 21:23:29 10° SSW 21:23:49 10° SSW visible
24 Dec 9.5 03:08:54 15° SSW 03:12:50 24° SSE 03:18:11 10° ESE visible
24 Dec 7.7 05:00:17 10° WSW 05:07:16 80° SSE 05:13:52 10° ENE visible
24 Dec 9.4 18:26:54 10° W 18:33:46 38° SSW 18:40:55 10° SE visible
24 Dec 10.3 20:25:38 10° SW 20:29:05 13° SSW 20:32:34 10° S visible
25 Dec 9.9 02:20:05 17° SE 02:20:05 17° SE 02:23:24 10° ESE visible
25 Dec 8.1 04:07:06 13° SW 04:13:30 58° SSE 04:20:04 10° ENE visible
25 Dec 10.2 19:30:01 10° WSW 19:34:47 17° SSW 19:39:39 10° SSE visible
26 Dec 8.6 03:18:19 39° S 03:19:38 42° SSE 03:26:04 10° E visible
26 Dec 7.7 05:06:59 10° WSW 05:13:51 56° NNW 05:20:19 10° NE visible
26 Dec 10.1 18:34:56 10° WSW 18:40:35 23° SSW 18:46:25 10° SSE visible
27 Dec 9.8 02:29:28 20° ESE 02:29:28 20° ESE 02:31:50 10° E visible
27 Dec 7.5 04:16:28 32° WSW 04:20:05 79° NNW 04:26:50 10° NE visible
27 Dec 10.5 19:40:48 10° SSW 19:42:03 10° SSW 19:43:17 10° S visible
